Hrossey — VSTY6 — position and weather

sailwx.info

Track history (hours):
 
Tides and Currents Weather Stations Pressure Air Temp Water Temp Dewpoint Dewpoint Depression Visibility Wind Speed Wind Dir Waves Ship Positions

Hrossey

Operator: NorthLink Orkey & Shetland Ferries Ltd

Last reported at 2017-Aug-18 00:18 UTC. Time now 2017-Aug-18 10:51 UTC.
Position N 59°04' W 002°28'.

Length 125 m; draft 5.4 m.

Type: Passenger vessel. MMSI: 235448000.

Date/timePositionNaut miles runAvg speedWind from/ knotsBaromVisibWave heightAir tempDewpointWater temp
2017-Aug-18 00:18N 59°04' W 002°28'611.8
2017-Aug-17 23:47N 59°01' W 002°39'312.5
2017-Aug-17 23:30N 59°01' W 002°45'612.6
2017-Aug-17 23:01N 59°01' W 002°57'1 1.9
2017-Aug-17 22:21N 58°60' W 002°58'0 0.0
2017-Aug-17 21:56N 58°60' W 002°58'4 8.3
2017-Aug-17 21:30N 59°01' W 002°51'7722.3
2017-Aug-17 18:04N 57°52' W 001°49'223.1
2017-Aug-17 18:00N 57°50' W 001°47'1123.3
2017-Aug-17 17:31N 57°39' W 001°40'1822.0
2017-Aug-17 16:41N 57°22' W 001°48'423.9
2017-Aug-17 16:31N 57°18' W 001°52'1122.1
2017-Aug-17 16:01N 57°09' W 002°03'1 2.3
2017-Aug-17 15:30N 57°09' W 002°05'0 0.0
2017-Aug-17 14:59N 57°09' W 002°05'0 0.0
2017-Aug-17 14:30N 57°09' W 002°05'0 0.0
2017-Aug-17 14:00N 57°09' W 002°05'0 0.0
2017-Aug-17 13:29N 57°09' W 002°05'0 0.0
2017-Aug-17 12:59N 57°09' W 002°05'0 0.0
2017-Aug-17 12:30N 57°09' W 002°05'0 0.0
2017-Aug-17 12:00N 57°09' W 002°05'0 0.0
2017-Aug-17 11:30N 57°09' W 002°05'0 0.0
2017-Aug-17 10:59N 57°09' W 002°05'0 0.0
2017-Aug-17 10:30N 57°09' W 002°05'0 0.0
2017-Aug-17 10:00N 57°09' W 002°05'0 0.0
2017-Aug-17 09:29N 57°09' W 002°05'0 0.0
2017-Aug-17 08:59N 57°09' W 002°05'0 0.0
2017-Aug-17 08:29N 57°09' W 002°05'0 0.0
2017-Aug-17 07:59N 57°09' W 002°05'0 0.0
2017-Aug-17 07:30N 57°09' W 002°05'0 0.0
2017-Aug-17 07:00N 57°09' W 002°05'0 0.0
2017-Aug-17 06:29N 57°09' W 002°05'0 0.0
2017-Aug-17 05:59N 57°09' W 002°05'1 1.2
2017-Aug-17 05:30N 57°09' W 002°04'713.3
2017-Aug-17 05:00N 57°13' W 001°56'2617.1
2017-Aug-17 03:31N 57°37' W 001°39'016.9
2017-Aug-17 03:30N 57°37' W 001°39'1019.2
2017-Aug-17 02:59N 57°47' W 001°45'7620.5
2017-Aug-16 23:15N 58°58' W 002°39'521.3
2017-Aug-16 23:00N 59°00' W 002°48'510.4
2017-Aug-16 22:30N 58°60' W 002°58'0 0.0
2017-Aug-16 22:00N 58°60' W 002°58'0 0.0
2017-Aug-16 21:30N 58°60' W 002°58'2 3.5
2017-Aug-16 21:01N 59°01' W 002°57'15 0.7
2017-Aug-16 00:23N 59°04' W 002°28'712.8
2017-Aug-15 23:50N 59°00' W 002°40'513.7
2017-Aug-15 23:30N 59°01' W 002°49'5 9.8
2017-Aug-15 22:59N 58°60' W 002°58'0 0.0
2017-Aug-15 22:27N 58°60' W 002°58'0 0.0
2017-Aug-15 21:58N 58°60' W 002°58'510.9
2017-Aug-15 21:30N 59°00' W 002°49'7623.0
2017-Aug-15 18:13N 57°52' W 001°48'522.9
2017-Aug-15 18:00N 57°47' W 001°47'1221.9
2017-Aug-15 17:28N 57°36' W 001°40'1620.9
2017-Aug-15 16:43N 57°21' W 001°48'522.6
2017-Aug-15 16:30N 57°17' W 001°53'1020.1
2017-Aug-15 16:00N 57°09' W 002°04'1 1.9
2017-Aug-15 15:30N 57°09' W 002°05'0 0.0
2017-Aug-15 15:00N 57°09' W 002°05'0 0.0
2017-Aug-15 14:30N 57°09' W 002°05'0 0.0
2017-Aug-15 14:00N 57°09' W 002°05'0 0.0
2017-Aug-15 13:30N 57°09' W 002°05'0 0.0
2017-Aug-15 13:00N 57°09' W 002°05'0 0.0
2017-Aug-15 12:30N 57°09' W 002°05'0 0.0
2017-Aug-15 12:00N 57°09' W 002°05'0 0.0
2017-Aug-15 11:30N 57°09' W 002°05'0 0.0
2017-Aug-15 11:00N 57°09' W 002°05'0 0.0
2017-Aug-15 10:30N 57°09' W 002°05'0 0.0
2017-Aug-15 10:00N 57°09' W 002°05'0 0.0
2017-Aug-15 09:30N 57°09' W 002°05'0 0.0
2017-Aug-15 09:00N 57°09' W 002°05'0 0.0
2017-Aug-15 08:30N 57°09' W 002°05'0 0.0
2017-Aug-15 08:00N 57°09' W 002°05'0 0.0
2017-Aug-15 07:31N 57°09' W 002°05'0 0.0
2017-Aug-15 07:00N 57°09' W 002°05'0 0.0
2017-Aug-15 06:30N 57°09' W 002°05'0 0.0
2017-Aug-15 06:00N 57°09' W 002°05'0 0.0
2017-Aug-15 05:29N 57°09' W 002°05'2 3.4
2017-Aug-15 05:01N 57°09' W 002°03'815.8
2017-Aug-15 04:29N 57°15' W 001°52'2318.4
2017-Aug-15 03:12N 57°38' W 001°40'522.1
2017-Aug-15 02:59N 57°42' W 001°43'8222.9
2017-Aug-14 23:25N 58°58' W 002°39'922.3
2017-Aug-14 23:00N 59°01' W 002°56'2 1.5
2017-Aug-14 21:42N 58°60' W 002°58'1 3.4
2017-Aug-14 21:30N 59°00' W 002°58'16 0.7
2017-Aug-14 00:09N 59°04' W 002°28'212.6
2017-Aug-14 00:00N 59°02' W 002°30'612.0
2017-Aug-13 23:30N 59°00' W 002°41'714.8
2017-Aug-13 23:00N 59°01' W 002°55'2 3.7
2017-Aug-13 22:27N 58°60' W 002°58'0 0.0
2017-Aug-13 21:58N 58°60' W 002°58'2 5.0
2017-Aug-13 21:30N 59°01' W 002°54'1121.8
2017-Aug-13 21:00N 58°55' W 002°36'6824.1
2017-Aug-13 18:10N 57°52' W 001°50'423.4
2017-Aug-13 18:00N 57°48' W 001°48'1122.5
2017-Aug-13 17:30N 57°37' W 001°43'1121.6
2017-Aug-13 17:00N 57°26' W 001°44'1122.1
2017-Aug-13 16:30N 57°16' W 001°53'1019.2
2017-Aug-13 16:00N 57°09' W 002°04'1 1.5
2017-Aug-13 15:27N 57°09' W 002°05'0 0.0
2017-Aug-13 14:57N 57°09' W 002°05'0 0.0
2017-Aug-13 14:26N 57°09' W 002°05'0 0.0
2017-Aug-13 13:56N 57°09' W 002°05'0 0.0
2017-Aug-13 13:29N 57°09' W 002°05'0 0.0
2017-Aug-13 12:59N 57°09' W 002°05'0 0.0
2017-Aug-13 12:30N 57°09' W 002°05'0 0.0
2017-Aug-13 12:00N 57°09' W 002°05'0 0.0
2017-Aug-13 11:30N 57°09' W 002°05'0 0.0
2017-Aug-13 11:00N 57°09' W 002°05'0 0.0
2017-Aug-13 10:29N 57°09' W 002°05'0 0.0
2017-Aug-13 09:59N 57°09' W 002°05'0 0.0
2017-Aug-13 09:30N 57°09' W 002°05'0 0.0
2017-Aug-13 09:00N 57°09' W 002°05'0 0.0
2017-Aug-13 08:29N 57°09' W 002°05'0 0.0
2017-Aug-13 07:59N 57°09' W 002°05'0 0.0
2017-Aug-13 07:30N 57°09' W 002°05'0 0.0
2017-Aug-13 07:00N 57°09' W 002°05'0 0.0
2017-Aug-13 06:30N 57°09' W 002°05'0 0.0
2017-Aug-13 06:00N 57°09' W 002°05'1 1.2
2017-Aug-13 05:31N 57°08' W 002°04'713.3
2017-Aug-13 05:00N 57°13' W 001°56'2113.9
2017-Aug-13 03:32N 57°31' W 001°37'215.1
2017-Aug-13 03:25N 57°33' W 001°36'20 0.6
2017-Aug-11 20:42N 57°52' W 001°37'418.1
2017-Aug-11 20:29N 57°48' W 001°37'918.8
2017-Aug-11 20:00N 57°39' W 001°35'918.8
2017-Aug-11 19:31N 57°30' W 001°34'1416.1
2017-Aug-11 18:38N 57°18' W 001°49'218.9
2017-Aug-11 18:30N 57°16' W 001°52'918.2
2017-Aug-11 18:01N 57°09' W 002°02'2 3.5
2017-Aug-11 17:27N 57°09' W 002°05'0 0.0
2017-Aug-11 16:57N 57°09' W 002°05'0 0.0
2017-Aug-11 16:27N 57°09' W 002°05'0 0.0
2017-Aug-11 15:57N 57°09' W 002°05'0 0.0
2017-Aug-11 15:28N 57°09' W 002°05'0 0.0
2017-Aug-11 14:57N 57°09' W 002°05'0 0.0
2017-Aug-11 13:57N 57°09' W 002°05'0 0.0
2017-Aug-11 13:27N 57°09' W 002°05'0 0.0
2017-Aug-11 12:57N 57°09' W 002°05'0 0.0
2017-Aug-11 12:27N 57°09' W 002°05'0 0.0
2017-Aug-11 11:57N 57°09' W 002°05'0 0.0
2017-Aug-11 11:27N 57°09' W 002°05'0 0.0
2017-Aug-11 10:57N 57°09' W 002°05'0 0.0
2017-Aug-11 10:28N 57°09' W 002°05'0 0.0
2017-Aug-11 09:58N 57°09' W 002°05'0 0.0
2017-Aug-11 09:27N 57°09' W 002°05'0 0.0
2017-Aug-11 08:57N 57°09' W 002°05'0 0.0
2017-Aug-11 08:28N 57°09' W 002°05'0 0.0
2017-Aug-11 07:57N 57°09' W 002°05'0 0.0
2017-Aug-11 07:27N 57°09' W 002°05'0 0.0
2017-Aug-11 06:57N 57°09' W 002°05'0 0.0
2017-Aug-11 06:28N 57°09' W 002°05'0 0.0
2017-Aug-11 05:58N 57°09' W 002°05'1 1.5
2017-Aug-11 05:30N 57°08' W 002°04'815.2
2017-Aug-11 05:00N 57°14' W 001°54'1913.0
2017-Aug-11 03:34N 57°30' W 001°38'114.1
2017-Aug-11 03:30N 57°31' W 001°38'5 0.2
2017-Aug-09 19:55N 57°36' W 001°37'615.1
2017-Aug-09 19:30N 57°30' W 001°40'1015.9
2017-Aug-09 18:54N 57°21' W 001°47'615.5
2017-Aug-09 18:30N 57°16' W 001°53'816.6
2017-Aug-09 18:00N 57°10' W 002°02'2 4.0
2017-Aug-09 17:29N 57°09' W 002°05'0 0.0
2017-Aug-09 16:56N 57°09' W 002°05'0 0.0
2017-Aug-09 16:29N 57°09' W 002°05'0 0.0
2017-Aug-09 15:58N 57°09' W 002°05'0 0.0
2017-Aug-09 15:28N 57°09' W 002°05'0 0.0
2017-Aug-09 14:58N 57°09' W 002°05'0 0.0
2017-Aug-09 14:29N 57°09' W 002°05'0 0.0
2017-Aug-09 13:59N 57°09' W 002°05'0 0.0
2017-Aug-09 13:28N 57°09' W 002°05'0 0.0
2017-Aug-09 12:58N 57°09' W 002°05'0 0.0
2017-Aug-09 12:29N 57°09' W 002°05'0 0.0
2017-Aug-09 11:58N 57°09' W 002°05'0 0.0
2017-Aug-09 11:28N 57°09' W 002°05'0 0.0
2017-Aug-09 10:58N 57°09' W 002°05'0 0.0
2017-Aug-09 10:29N 57°09' W 002°05'0 0.0
2017-Aug-09 09:58N 57°09' W 002°05'0 0.0
2017-Aug-09 09:29N 57°09' W 002°05'0 0.0
2017-Aug-09 08:59N 57°09' W 002°05'0 0.0
2017-Aug-09 08:29N 57°09' W 002°05'0 0.0
2017-Aug-09 07:58N 57°09' W 002°05'0 0.0
2017-Aug-09 07:29N 57°09' W 002°05'0 0.0
2017-Aug-09 06:58N 57°09' W 002°05'0 0.0
2017-Aug-09 06:29N 57°09' W 002°05'0 0.0
2017-Aug-09 05:59N 57°09' W 002°05'1 1.4
2017-Aug-09 05:31N 57°08' W 002°04'714.2
2017-Aug-09 05:00N 57°14' W 001°55'1617.0
2017-Aug-09 04:03N 57°27' W 001°39'115.2
2017-Aug-09 03:58N 57°29' W 001°39'  
Track history (hours):
 
Tides and Currents Weather Stations Pressure Air Temp Water Temp Dewpoint Dewpoint Depression Visibility Wind Speed Wind Dir Waves Ship Positions

Hrossey

Operator: NorthLink Orkey & Shetland Ferries Ltd

Last reported at 2017-Aug-18 00:18 UTC. Time now 2017-Aug-18 10:51 UTC.
Position N 59°04' W 002°28'.

Length 125 m; draft 5.4 m.

Type: Passenger vessel. MMSI: 235448000.

Date/timePositionNaut miles runAvg speedWind from/ knotsBaromVisibWave heightAir tempDewpointWater temp
2017-Aug-18 00:18N 59°04' W 002°28'611.8
2017-Aug-17 23:47N 59°01' W 002°39'312.5
2017-Aug-17 23:30N 59°01' W 002°45'612.6
2017-Aug-17 23:01N 59°01' W 002°57'1 1.9
2017-Aug-17 22:21N 58°60' W 002°58'0 0.0
2017-Aug-17 21:56N 58°60' W 002°58'4 8.3
2017-Aug-17 21:30N 59°01' W 002°51'7722.3
2017-Aug-17 18:04N 57°52' W 001°49'223.1
2017-Aug-17 18:00N 57°50' W 001°47'1123.3
2017-Aug-17 17:31N 57°39' W 001°40'1822.0
2017-Aug-17 16:41N 57°22' W 001°48'423.9
2017-Aug-17 16:31N 57°18' W 001°52'1122.1
2017-Aug-17 16:01N 57°09' W 002°03'1 2.3
2017-Aug-17 15:30N 57°09' W 002°05'0 0.0
2017-Aug-17 14:59N 57°09' W 002°05'0 0.0
2017-Aug-17 14:30N 57°09' W 002°05'0 0.0
2017-Aug-17 14:00N 57°09' W 002°05'0 0.0
2017-Aug-17 13:29N 57°09' W 002°05'0 0.0
2017-Aug-17 12:59N 57°09' W 002°05'0 0.0
2017-Aug-17 12:30N 57°09' W 002°05'0 0.0
2017-Aug-17 12:00N 57°09' W 002°05'0 0.0
2017-Aug-17 11:30N 57°09' W 002°05'0 0.0
2017-Aug-17 10:59N 57°09' W 002°05'0 0.0
2017-Aug-17 10:30N 57°09' W 002°05'0 0.0
2017-Aug-17 10:00N 57°09' W 002°05'0 0.0
2017-Aug-17 09:29N 57°09' W 002°05'0 0.0
2017-Aug-17 08:59N 57°09' W 002°05'0 0.0
2017-Aug-17 08:29N 57°09' W 002°05'0 0.0
2017-Aug-17 07:59N 57°09' W 002°05'0 0.0
2017-Aug-17 07:30N 57°09' W 002°05'0 0.0
2017-Aug-17 07:00N 57°09' W 002°05'0 0.0
2017-Aug-17 06:29N 57°09' W 002°05'0 0.0
2017-Aug-17 05:59N 57°09' W 002°05'1 1.2
2017-Aug-17 05:30N 57°09' W 002°04'713.3
2017-Aug-17 05:00N 57°13' W 001°56'2617.1
2017-Aug-17 03:31N 57°37' W 001°39'016.9
2017-Aug-17 03:30N 57°37' W 001°39'1019.2
2017-Aug-17 02:59N 57°47' W 001°45'7620.5
2017-Aug-16 23:15N 58°58' W 002°39'521.3
2017-Aug-16 23:00N 59°00' W 002°48'510.4
2017-Aug-16 22:30N 58°60' W 002°58'0 0.0
2017-Aug-16 22:00N 58°60' W 002°58'0 0.0
2017-Aug-16 21:30N 58°60' W 002°58'2 3.5
2017-Aug-16 21:01N 59°01' W 002°57'15 0.7
2017-Aug-16 00:23N 59°04' W 002°28'712.8
2017-Aug-15 23:50N 59°00' W 002°40'513.7
2017-Aug-15 23:30N 59°01' W 002°49'5 9.8
2017-Aug-15 22:59N 58°60' W 002°58'0 0.0
2017-Aug-15 22:27N 58°60' W 002°58'0 0.0
2017-Aug-15 21:58N 58°60' W 002°58'510.9
2017-Aug-15 21:30N 59°00' W 002°49'7623.0
2017-Aug-15 18:13N 57°52' W 001°48'522.9
2017-Aug-15 18:00N 57°47' W 001°47'1221.9
2017-Aug-15 17:28N 57°36' W 001°40'1620.9
2017-Aug-15 16:43N 57°21' W 001°48'522.6
2017-Aug-15 16:30N 57°17' W 001°53'1020.1
2017-Aug-15 16:00N 57°09' W 002°04'1 1.9
2017-Aug-15 15:30N 57°09' W 002°05'0 0.0
2017-Aug-15 15:00N 57°09' W 002°05'0 0.0
2017-Aug-15 14:30N 57°09' W 002°05'0 0.0
2017-Aug-15 14:00N 57°09' W 002°05'0 0.0
2017-Aug-15 13:30N 57°09' W 002°05'0 0.0
2017-Aug-15 13:00N 57°09' W 002°05'0 0.0
2017-Aug-15 12:30N 57°09' W 002°05'0 0.0
2017-Aug-15 12:00N 57°09' W 002°05'0 0.0
2017-Aug-15 11:30N 57°09' W 002°05'0 0.0
2017-Aug-15 11:00N 57°09' W 002°05'0 0.0
2017-Aug-15 10:30N 57°09' W 002°05'0 0.0
2017-Aug-15 10:00N 57°09' W 002°05'0 0.0
2017-Aug-15 09:30N 57°09' W 002°05'0 0.0
2017-Aug-15 09:00N 57°09' W 002°05'0 0.0
2017-Aug-15 08:30N 57°09' W 002°05'0 0.0
2017-Aug-15 08:00N 57°09' W 002°05'0 0.0
2017-Aug-15 07:31N 57°09' W 002°05'0 0.0
2017-Aug-15 07:00N 57°09' W 002°05'0 0.0
2017-Aug-15 06:30N 57°09' W 002°05'0 0.0
2017-Aug-15 06:00N 57°09' W 002°05'0 0.0
2017-Aug-15 05:29N 57°09' W 002°05'2 3.4
2017-Aug-15 05:01N 57°09' W 002°03'815.8
2017-Aug-15 04:29N 57°15' W 001°52'2318.4
2017-Aug-15 03:12N 57°38' W 001°40'522.1
2017-Aug-15 02:59N 57°42' W 001°43'8222.9
2017-Aug-14 23:25N 58°58' W 002°39'922.3
2017-Aug-14 23:00N 59°01' W 002°56'2 1.5
2017-Aug-14 21:42N 58°60' W 002°58'1 3.4
2017-Aug-14 21:30N 59°00' W 002°58'16 0.7
2017-Aug-14 00:09N 59°04' W 002°28'212.6
2017-Aug-14 00:00N 59°02' W 002°30'612.0
2017-Aug-13 23:30N 59°00' W 002°41'714.8
2017-Aug-13 23:00N 59°01' W 002°55'2 3.7
2017-Aug-13 22:27N 58°60' W 002°58'0 0.0
2017-Aug-13 21:58N 58°60' W 002°58'2 5.0
2017-Aug-13 21:30N 59°01' W 002°54'1121.8
2017-Aug-13 21:00N 58°55' W 002°36'6824.1
2017-Aug-13 18:10N 57°52' W 001°50'423.4
2017-Aug-13 18:00N 57°48' W 001°48'1122.5
2017-Aug-13 17:30N 57°37' W 001°43'1121.6
2017-Aug-13 17:00N 57°26' W 001°44'1122.1
2017-Aug-13 16:30N 57°16' W 001°53'1019.2
2017-Aug-13 16:00N 57°09' W 002°04'1 1.5
2017-Aug-13 15:27N 57°09' W 002°05'0 0.0
2017-Aug-13 14:57N 57°09' W 002°05'0 0.0
2017-Aug-13 14:26N 57°09' W 002°05'0 0.0
2017-Aug-13 13:56N 57°09' W 002°05'0 0.0
2017-Aug-13 13:29N 57°09' W 002°05'0 0.0
2017-Aug-13 12:59N 57°09' W 002°05'0 0.0
2017-Aug-13 12:30N 57°09' W 002°05'0 0.0
2017-Aug-13 12:00N 57°09' W 002°05'0 0.0
2017-Aug-13 11:30N 57°09' W 002°05'0 0.0
2017-Aug-13 11:00N 57°09' W 002°05'0 0.0
2017-Aug-13 10:29N 57°09' W 002°05'0 0.0
2017-Aug-13 09:59N 57°09' W 002°05'0 0.0
2017-Aug-13 09:30N 57°09' W 002°05'0 0.0
2017-Aug-13 09:00N 57°09' W 002°05'0 0.0
2017-Aug-13 08:29N 57°09' W 002°05'0 0.0
2017-Aug-13 07:59N 57°09' W 002°05'0 0.0
2017-Aug-13 07:30N 57°09' W 002°05'0 0.0
2017-Aug-13 07:00N 57°09' W 002°05'0 0.0
2017-Aug-13 06:30N 57°09' W 002°05'0 0.0
2017-Aug-13 06:00N 57°09' W 002°05'1 1.2
2017-Aug-13 05:31N 57°08' W 002°04'713.3
2017-Aug-13 05:00N 57°13' W 001°56'2113.9
2017-Aug-13 03:32N 57°31' W 001°37'215.1
2017-Aug-13 03:25N 57°33' W 001°36'20 0.6
2017-Aug-11 20:42N 57°52' W 001°37'418.1
2017-Aug-11 20:29N 57°48' W 001°37'918.8
2017-Aug-11 20:00N 57°39' W 001°35'918.8
2017-Aug-11 19:31N 57°30' W 001°34'1416.1
2017-Aug-11 18:38N 57°18' W 001°49'218.9
2017-Aug-11 18:30N 57°16' W 001°52'918.2
2017-Aug-11 18:01N 57°09' W 002°02'2 3.5
2017-Aug-11 17:27N 57°09' W 002°05'0 0.0
2017-Aug-11 16:57N 57°09' W 002°05'0 0.0
2017-Aug-11 16:27N 57°09' W 002°05'0 0.0
2017-Aug-11 15:57N 57°09' W 002°05'0 0.0
2017-Aug-11 15:28N 57°09' W 002°05'0 0.0
2017-Aug-11 14:57N 57°09' W 002°05'0 0.0
2017-Aug-11 13:57N 57°09' W 002°05'0 0.0
2017-Aug-11 13:27N 57°09' W 002°05'0 0.0
2017-Aug-11 12:57N 57°09' W 002°05'0 0.0
2017-Aug-11 12:27N 57°09' W 002°05'0 0.0
2017-Aug-11 11:57N 57°09' W 002°05'0 0.0
2017-Aug-11 11:27N 57°09' W 002°05'0 0.0
2017-Aug-11 10:57N 57°09' W 002°05'0 0.0
2017-Aug-11 10:28N 57°09' W 002°05'0 0.0
2017-Aug-11 09:58N 57°09' W 002°05'0 0.0
2017-Aug-11 09:27N 57°09' W 002°05'0 0.0
2017-Aug-11 08:57N 57°09' W 002°05'0 0.0
2017-Aug-11 08:28N 57°09' W 002°05'0 0.0
2017-Aug-11 07:57N 57°09' W 002°05'0 0.0
2017-Aug-11 07:27N 57°09' W 002°05'0 0.0
2017-Aug-11 06:57N 57°09' W 002°05'0 0.0
2017-Aug-11 06:28N 57°09' W 002°05'0 0.0
2017-Aug-11 05:58N 57°09' W 002°05'1 1.5
2017-Aug-11 05:30N 57°08' W 002°04'815.2
2017-Aug-11 05:00N 57°14' W 001°54'1913.0
2017-Aug-11 03:34N 57°30' W 001°38'114.1
2017-Aug-11 03:30N 57°31' W 001°38'5 0.2
2017-Aug-09 19:55N 57°36' W 001°37'615.1
2017-Aug-09 19:30N 57°30' W 001°40'1015.9
2017-Aug-09 18:54N 57°21' W 001°47'615.5
2017-Aug-09 18:30N 57°16' W 001°53'816.6
2017-Aug-09 18:00N 57°10' W 002°02'2 4.0
2017-Aug-09 17:29N 57°09' W 002°05'0 0.0
2017-Aug-09 16:56N 57°09' W 002°05'0 0.0
2017-Aug-09 16:29N 57°09' W 002°05'0 0.0
2017-Aug-09 15:58N 57°09' W 002°05'0 0.0
2017-Aug-09 15:28N 57°09' W 002°05'0 0.0
2017-Aug-09 14:58N 57°09' W 002°05'0 0.0
2017-Aug-09 14:29N 57°09' W 002°05'0 0.0
2017-Aug-09 13:59N 57°09' W 002°05'0 0.0
2017-Aug-09 13:28N 57°09' W 002°05'0 0.0
2017-Aug-09 12:58N 57°09' W 002°05'0 0.0
2017-Aug-09 12:29N 57°09' W 002°05'0 0.0
2017-Aug-09 11:58N 57°09' W 002°05'0 0.0
2017-Aug-09 11:28N 57°09' W 002°05'0 0.0
2017-Aug-09 10:58N 57°09' W 002°05'0 0.0
2017-Aug-09 10:29N 57°09' W 002°05'0 0.0
2017-Aug-09 09:58N 57°09' W 002°05'0 0.0
2017-Aug-09 09:29N 57°09' W 002°05'0 0.0
2017-Aug-09 08:59N 57°09' W 002°05'0 0.0
2017-Aug-09 08:29N 57°09' W 002°05'0 0.0
2017-Aug-09 07:58N 57°09' W 002°05'0 0.0
2017-Aug-09 07:29N 57°09' W 002°05'0 0.0
2017-Aug-09 06:58N 57°09' W 002°05'0 0.0
2017-Aug-09 06:29N 57°09' W 002°05'0 0.0
2017-Aug-09 05:59N 57°09' W 002°05'1 1.4
2017-Aug-09 05:31N 57°08' W 002°04'714.2
2017-Aug-09 05:00N 57°14' W 001°55'1617.0
2017-Aug-09 04:03N 57°27' W 001°39'115.2
2017-Aug-09 03:58N 57°29' W 001°39'  

Dump ship's entire track history